Weather History for Park Rapids, MN

Change the Weather History Date:

Thursday, September 27, 2012

  Actual Average Record
Temperature  
Mean Temperature 47 °F -  
Max Temperature 68 °F 64 °F 82 °F (1983)
Min Temperature 28 °F 39 °F 27 °F (1991)
Degree Days  
Heating Degree Days 18    
Moisture  
Dew Point 30 °F    
Average Humidity 57    
Maximum Humidity 86    
Minimum Humidity 24    
Precipitation  
Precipitation 0.00 in - - ()
Sea Level Pressure  
Sea Level Pressure 30.23 in    
Wind  
Wind Speed 2 mph (SSE)    
Max Wind Speed 12 mph    
Max Gust Speed -    
Visibility 10 miles    
Events      
Averages and records for this station are not official NWS values.
T = Trace of Precipitation, MM = Missing Value Source: NWS Daily Summary

Daily Weather History Graph

Daily Weather History Graph

Search for Another Location

Airport:

Trip Planner

Search our weather history database for the weather conditions in past years. The results will help you decide how hot, cold, wet, or windy it might be!

Date:

Astronomy

Sep. 27, 2012 Rise Set
Actual Time 7:14 AM CDT 7:06 PM CDT
Civil Twilight 6:44 AM CDT 7:37 PM CDT
Nautical Twilight 6:08 AM CDT 8:12 PM CDT
Astronomical Twilight 5:32 AM CDT 8:48 PM CDT
Moon 5:43 PM CDT (9/27) 4:37 AM CDT (9/27)
Length of Visible Light 12h 52m
Length of Day
11h 52m
Waxing Gibbous, 94% of the Moon is Illuminated
Sep 27
Waxing Gibbous
Sep 29
Full
Oct 8
Last Quarter
Oct 15
New
Oct 21
First Quarter

Hourly Weather History & Observations

Time (CDT) Temp. Dew Point Humidity Pressure Visibility Wind Dir Wind Speed Gust Speed Precip Events Conditions
12:53 AM 36.0 °F 28.9 °F 76% 30.24 in 10.0 mi Calm Calm - N/A   Clear
1:53 AM 33.1 °F 28.0 °F 82% 30.25 in 10.0 mi Calm Calm - N/A   Clear
2:53 AM 33.1 °F 28.0 °F 82% 30.24 in 10.0 mi Calm Calm - N/A   Clear
3:53 AM 28.9 °F 24.1 °F 82% 30.25 in 10.0 mi Calm Calm - N/A   Clear
4:53 AM 30.2 °F 26.6 °F 86% 30.22 in 10.0 mi Calm Calm - N/A   Clear
5:53 AM 30.9 °F 27.0 °F 85% 30.27 in 10.0 mi Calm Calm - N/A   Scattered Clouds
6:01 AM 32.0 °F 26.6 °F 80% 30.24 in 10.0 mi Calm Calm - N/A   Mostly Cloudy
6:21 AM 28.4 °F 24.8 °F 86% 30.24 in 10.0 mi Calm Calm - N/A   Scattered Clouds
6:53 AM 28.9 °F 25.0 °F 85% 30.29 in 10.0 mi Calm Calm - N/A   Clear
7:53 AM 30.0 °F 26.1 °F 85% 30.29 in 10.0 mi Calm Calm - N/A   Clear
8:53 AM 39.0 °F 33.1 °F 79% 30.29 in 10.0 mi Calm Calm - N/A   Clear
9:53 AM 48.0 °F 34.0 °F 58% 30.30 in 10.0 mi South 4.6 mph - N/A   Clear
10:53 AM 55.9 °F 34.0 °F 44% 30.28 in 10.0 mi Variable 6.9 mph - N/A   Clear
11:53 AM 60.1 °F 32.0 °F 35% 30.26 in 10.0 mi South 11.5 mph - N/A   Clear
12:53 PM 63.0 °F 30.9 °F 30% 30.24 in 10.0 mi Variable 4.6 mph - N/A   Clear
1:53 PM 64.0 °F 30.9 °F 29% 30.22 in 10.0 mi SE 4.6 mph - N/A   Clear
2:53 PM 64.9 °F 30.0 °F 27% 30.20 in 10.0 mi Calm Calm - N/A   Clear
3:53 PM 66.9 °F 28.9 °F 24% 30.20 in 10.0 mi Variable 4.6 mph - N/A   Clear
4:53 PM 66.9 °F 28.9 °F 24% 30.19 in 10.0 mi South 4.6 mph - N/A   Clear
5:53 PM 66.0 °F 28.9 °F 25% 30.18 in 10.0 mi South 6.9 mph - N/A   Clear
6:53 PM 62.1 °F 33.1 °F 34% 30.19 in 8.0 mi SSE 4.6 mph - N/A   Clear
7:53 PM 59.0 °F 30.9 °F 35% 30.19 in 10.0 mi SE 4.6 mph - N/A   Clear
8:53 PM 55.0 °F 32.0 °F 42% 30.18 in 10.0 mi SSE 5.8 mph - N/A   Clear
9:53 PM 53.1 °F 33.1 °F 47% 30.17 in 10.0 mi SSE 3.5 mph - N/A   Clear
10:53 PM 50.0 °F 33.1 °F 52% 30.19 in 10.0 mi East 3.5 mph - N/A   Clear
11:53 PM 46.4 °F 33.8 °F 62% 30.17 in 10.0 mi Calm Calm - N/A   Clear